Location: Alvis C Story Elementary School
(33.0968°N, 96.6364°W)
Time: 06:56:07
(UTC+00:00)

Cosmos 2228 Rocket - Pass Details

Date: 03 July 2022
Orbit: 618 x 651 km, 82.5° (Epoch: 12 August)

Event Time Altitude Azimuth Distance (km) Brightness Sun altitude
Rises 08:52:14 0° 21° (NNE) 2,916 7.8 -24.6°
Reaches altitude 10° 08:56:37 10° 63° (ENE) 2,012 6.5 -24.1°
Maximum altitude 08:57:25 10° 73° (ENE) 1,986 6.3 -24.0°
Drops below altitude 10° 08:58:12 10° 83° (E) 2,013 6.2 -23.9°
Sets 09:02:36 0° 124° (SE) 2,925 6.6 -23.3°
